Wetterdaten: Freitag, 24.01.2014
Datum Zeit Temperatur Luftfeuchte Luftdruck Regen Wind Richtung Richtung Taupunkt Windchill Windben
24.01.2014 00:00 0,3 C 80 % 1013,8 hPa 0,0 l/m 1,8 km/h (1 Bft) O 90 -2,7 C 0,2 C 1,8 km/h (1 Bft)
24.01.2014 00:05 -0,2 C 81 % 1013,8 hPa 0,0 l/m 0,6 km/h (0 Bft) SO 135 -3,1 C 0,0 C 0,0 km/h (0 Bft)
24.01.2014 00:10 -0,2 C 81 % 1013,8 hPa 0,0 l/m 0,0 km/h (0 Bft) O 90 -3,1 C -0,5 C 0,0 km/h (0 Bft)
24.01.2014 00:15 -0,2 C 82 % 1013,8 hPa 0,0 l/m 0,0 km/h (0 Bft) NO 45 -2,9 C -0,7 C 0,0 km/h (0 Bft)
24.01.2014 00:20 -0,3 C 82 % 1013,8 hPa 0,0 l/m 1,1 km/h (1 Bft) O-SO 112 -3,0 C -1,0 C 6,4 km/h (2 Bft)
24.01.2014 00:25 0,1 C 83 % 1013,4 hPa 0,0 l/m 3,1 km/h (1 Bft) NO 45 -2,4 C -1,3 C 4,3 km/h (1 Bft)
24.01.2014 00:30 0,0 C 83 % 1013,4 hPa 0,0 l/m 4,2 km/h (1 Bft) O-SO 112 -2,5 C -1,6 C 0,0 km/h (0 Bft)
24.01.2014 00:35 -0,6 C 82 % 1013,4 hPa 0,0 l/m 2,4 km/h (1 Bft) SW 225 -3,3 C -0,8 C 1,6 km/h (1 Bft)
24.01.2014 00:40 -1,3 C 82 % 1013,4 hPa 0,0 l/m 1,0 km/h (0 Bft) O-NO 67 -4,0 C -1,4 C 5,8 km/h (2 Bft)
24.01.2014 00:45 -1,2 C 83 % 1013,3 hPa 0,0 l/m 2,3 km/h (1 Bft) O 90 -3,7 C -1,7 C 7,1 km/h (2 Bft)
24.01.2014 00:50 -0,2 C 85 % 1013,3 hPa 0,0 l/m 5,8 km/h (2 Bft) O 90 -2,4 C -3,3 C 9,2 km/h (2 Bft)
24.01.2014 00:55 0,0 C 85 % 1013,3 hPa 0,0 l/m 6,3 km/h (2 Bft) O 90 -2,2 C -3,1 C 6,1 km/h (2 Bft)
24.01.2014 00:58 -0,2 C 84 % 1013,3 hPa 0,0 l/m 5,1 km/h (1 Bft) O 90 -2,6 C -2,5 C 5,0 km/h (1 Bft)
24.01.2014 01:00 -0,2 C 84 % 1013,3 hPa 0,0 l/m 5,1 km/h (1 Bft) O 90 -2,6 C -2,5 C 5,0 km/h (1 Bft)
24.01.2014 01:05 -0,4 C 84 % 1013,1 hPa 0,0 l/m 3,5 km/h (1 Bft) W-SW 247 -2,8 C -1,6 C 0,0 km/h (0 Bft)
24.01.2014 01:10 -1,2 C 83 % 1013,1 hPa 0,0 l/m 1,8 km/h (1 Bft) O 90 -3,7 C -1,1 C 6,3 km/h (2 Bft)
24.01.2014 01:15 0,1 C 85 % 1013,1 hPa 0,0 l/m 2,7 km/h (1 Bft) O 90 -2,1 C -1,2 C 6,4 km/h (2 Bft)
24.01.2014 01:20 0,3 C 84 % 1013,1 hPa 0,0 l/m 6,1 km/h (2 Bft) NO 45 -2,1 C -2,4 C 9,3 km/h (2 Bft)
24.01.2014 01:25 0,4 C 84 % 1012,8 hPa 0,0 l/m 6,4 km/h (2 Bft) O 90 -2,0 C -2,2 C 7,2 km/h (2 Bft)
24.01.2014 01:30 0,4 C 83 % 1012,8 hPa 0,0 l/m 6,1 km/h (2 Bft) O-SO 112 -2,1 C -1,8 C 10,5 km/h (2 Bft)
24.01.2014 01:35 0,6 C 83 % 1012,8 hPa 0,0 l/m 5,6 km/h (1 Bft) O-SO 112 -1,9 C -1,4 C 6,1 km/h (2 Bft)
24.01.2014 01:40 0,7 C 83 % 1012,8 hPa 0,0 l/m 5,8 km/h (2 Bft) O-SO 112 -1,8 C -1,4 C 7,2 km/h (2 Bft)
24.01.2014 01:45 0,7 C 82 % 1012,6 hPa 0,0 l/m 5,6 km/h (1 Bft) O 90 -2,0 C -1,2 C 7,1 km/h (2 Bft)
24.01.2014 01:50 0,8 C 82 % 1012,6 hPa 0,0 l/m 5,5 km/h (1 Bft) O-SO 112 -1,9 C -0,9 C 4,5 km/h (1 Bft)
24.01.2014 01:55 0,9 C 82 % 1012,6 hPa 0,0 l/m 5,1 km/h (1 Bft) S 180 -1,8 C -0,7 C 4,5 km/h (1 Bft)
24.01.2014 02:00 1,0 C 81 % 1012,6 hPa 0,0 l/m 5,1 km/h (1 Bft) O 90 -1,9 C -0,5 C 7,4 km/h (2 Bft)
24.01.2014 02:05 0,7 C 81 % 1012,4 hPa 0,0 l/m 5,0 km/h (1 Bft) O-NO 67 -2,2 C -0,3 C 1,6 km/h (1 Bft)
24.01.2014 02:10 0,5 C 82 % 1012,4 hPa 0,0 l/m 3,1 km/h (1 Bft) O 90 -2,2 C 0,3 C 3,4 km/h (1 Bft)
24.01.2014 02:15 0,6 C 82 % 1012,4 hPa 0,0 l/m 3,2 km/h (1 Bft) O-SO 112 -2,1 C 0,3 C 8,5 km/h (2 Bft)
24.01.2014 02:20 0,7 C 82 % 1012,4 hPa 0,0 l/m 5,3 km/h (1 Bft) O-SO 112 -2,0 C -0,8 C 6,9 km/h (2 Bft)
24.01.2014 02:25 0,8 C 82 % 1012,4 hPa 0,0 l/m 5,6 km/h (1 Bft) O 90 -1,9 C -0,9 C 6,4 km/h (2 Bft)
24.01.2014 02:30 0,8 C 82 % 1012,4 hPa 0,0 l/m 6,1 km/h (2 Bft) O-SO 112 -1,9 C -0,9 C 7,2 km/h (2 Bft)
24.01.2014 02:35 0,8 C 82 % 1012,4 hPa 0,0 l/m 5,8 km/h (2 Bft) O-SO 112 -1,9 C -0,7 C 4,7 km/h (1 Bft)
24.01.2014 02:40 1,1 C 82 % 1012,4 hPa 0,0 l/m 5,6 km/h (1 Bft) O-SO 112 -1,6 C -0,5 C 7,4 km/h (2 Bft)
24.01.2014 02:45 0,8 C 82 % 1012,2 hPa 0,0 l/m 4,8 km/h (1 Bft) NO 45 -1,9 C -0,1 C 3,5 km/h (1 Bft)
24.01.2014 02:50 0,8 C 82 % 1012,2 hPa 0,0 l/m 3,7 km/h (1 Bft) O-SO 112 -1,9 C 0,3 C 4,5 km/h (1 Bft)
24.01.2014 02:55 0,7 C 82 % 1012,2 hPa 0,0 l/m 3,5 km/h (1 Bft) NO 45 -2,0 C 0,3 C 2,9 km/h (1 Bft)
24.01.2014 03:00 0,7 C 82 % 1012,2 hPa 0,0 l/m 3,1 km/h (1 Bft) O-NO 67 -2,0 C 0,4 C 4,0 km/h (1 Bft)
24.01.2014 03:05 0,6 C 83 % 1012,2 hPa 0,0 l/m 3,4 km/h (1 Bft) O-SO 112 -1,9 C 0,2 C 4,0 km/h (1 Bft)
24.01.2014 03:10 0,5 C 83 % 1012,2 hPa 0,0 l/m 4,0 km/h (1 Bft) O-NO 67 -2,0 C -0,2 C 2,7 km/h (1 Bft)
24.01.2014 03:15 0,5 C 83 % 1012,2 hPa 0,0 l/m 4,0 km/h (1 Bft) O-NO 67 -2,0 C -0,2 C 4,5 km/h (1 Bft)
24.01.2014 03:20 0,6 C 83 % 1012,2 hPa 0,0 l/m 2,7 km/h (1 Bft) O 90 -1,9 C 0,5 C 0,0 km/h (0 Bft)
24.01.2014 03:25 0,5 C 83 % 1012,1 hPa 0,0 l/m 1,3 km/h (1 Bft) NO 45 -2,0 C 0,6 C 2,3 km/h (1 Bft)
24.01.2014 03:30 0,5 C 84 % 1012,1 hPa 0,0 l/m 0,5 km/h (0 Bft) O-SO 112 -1,9 C 0,6 C 2,4 km/h (1 Bft)
24.01.2014 03:35 0,6 C 84 % 1012,1 hPa 0,0 l/m 1,1 km/h (1 Bft) NO 45 -1,8 C 0,6 C 0,0 km/h (0 Bft)
24.01.2014 03:40 0,6 C 84 % 1012,1 hPa 0,0 l/m 0,8 km/h (0 Bft) O-NO 67 -1,8 C 0,6 C 0,0 km/h (0 Bft)
24.01.2014 03:45 0,6 C 85 % 1012,0 hPa 0,0 l/m 0,0 km/h (0 Bft) O-NO 67 -1,6 C 0,6 C 0,0 km/h (0 Bft)
24.01.2014 03:50 0,5 C 85 % 1012,0 hPa 0,0 l/m 0,0 km/h (0 Bft) N-NO 22 -1,7 C 0,5 C 0,0 km/h (0 Bft)
24.01.2014 03:55 0,4 C 85 % 1012,0 hPa 0,0 l/m 0,0 km/h (0 Bft) O-SO 112 -1,8 C 0,4 C 0,0 km/h (0 Bft)
24.01.2014 04:00 0,3 C 85 % 1012,0 hPa 0,0 l/m 0,0 km/h (0 Bft) O-SO 112 -1,9 C 0,3 C 0,0 km/h (0 Bft)
24.01.2014 04:05 0,2 C 85 % 1011,9 hPa 0,0 l/m 0,0 km/h (0 Bft) O-SO 112 -2,0 C 0,2 C 0,0 km/h (0 Bft)
24.01.2014 04:10 0,1 C 85 % 1011,9 hPa 0,0 l/m 0,0 km/h (0 Bft) NO 45 -2,1 C 0,3 C 0,0 km/h (0 Bft)
24.01.2014 04:15 0,1 C 86 % 1011,9 hPa 0,0 l/m 0,0 km/h (0 Bft) N-NO 22 -2,0 C 0,2 C 0,0 km/h (0 Bft)
24.01.2014 04:20 0,1 C 86 % 1011,9 hPa 0,0 l/m 0,0 km/h (0 Bft) N-NO 22 -2,0 C 0,2 C 0,0 km/h (0 Bft)
24.01.2014 04:25 0,1 C 86 % 1011,9 hPa 0,0 l/m 0,0 km/h (0 Bft) N-NO 22 -2,0 C 0,1 C 0,0 km/h (0 Bft)
24.01.2014 04:30 0,0 C 86 % 1011,9 hPa 0,0 l/m 0,0 km/h (0 Bft) N-NO 22 -2,1 C 0,0 C 0,0 km/h (0 Bft)
24.01.2014 04:35 -0,1 C 86 % 1011,9 hPa 0,0 l/m 0,0 km/h (0 Bft) N-NO 22 -2,2 C 0,0 C 0,0 km/h (0 Bft)
24.01.2014 04:40 0,0 C 87 % 1011,9 hPa 0,0 l/m 0,0 km/h (0 Bft) N-NO 22 -1,9 C 0,0 C 0,0 km/h (0 Bft)
24.01.2014 04:45 0,1 C 87 % 1011,9 hPa 0,0 l/m 0,0 km/h (0 Bft) N-NO 22 -1,8 C 0,0 C 0,0 km/h (0 Bft)
24.01.2014 04:50 0,1 C 87 % 1011,9 hPa 0,0 l/m 0,3 km/h (0 Bft) N-NO 22 -1,8 C 0,1 C 2,6 km/h (1 Bft)
24.01.2014 04:55 0,1 C 87 % 1011,9 hPa 0,0 l/m 0,5 km/h (0 Bft) N-NO 22 -1,8 C 0,1 C 1,6 km/h (1 Bft)
24.01.2014 05:00 0,0 C 88 % 1011,9 hPa 0,0 l/m 0,5 km/h (0 Bft) N-NO 22 -1,7 C 0,1 C 0,0 km/h (0 Bft)
24.01.2014 05:05 -0,1 C 88 % 1011,8 hPa 0,0 l/m 0,3 km/h (0 Bft) N-NO 22 -1,8 C 0,0 C 0,0 km/h (0 Bft)
24.01.2014 05:10 -0,1 C 88 % 1011,8 hPa 0,0 l/m 0,8 km/h (0 Bft) N-NO 22 -1,8 C -0,1 C 0,0 km/h (0 Bft)
24.01.2014 05:15 -0,1 C 88 % 1011,8 hPa 0,0 l/m 0,6 km/h (0 Bft) N-NO 22 -1,8 C -0,1 C 1,6 km/h (1 Bft)
24.01.2014 05:20 -0,3 C 88 % 1011,8 hPa 0,0 l/m 0,2 km/h (0 Bft) N-NO 22 -2,0 C -0,2 C 0,0 km/h (0 Bft)
24.01.2014 05:25 -0,2 C 89 % 1012,0 hPa 0,0 l/m 0,3 km/h (0 Bft) N-NO 22 -1,8 C -0,2 C 1,6 km/h (1 Bft)
24.01.2014 05:30 -0,2 C 89 % 1012,0 hPa 0,0 l/m 0,8 km/h (0 Bft) N-NO 22 -1,8 C -0,2 C 2,6 km/h (1 Bft)
24.01.2014 05:35 -0,2 C 89 % 1012,0 hPa 0,0 l/m 0,8 km/h (0 Bft) N-NO 22 -1,8 C -0,2 C 0,0 km/h (0 Bft)
24.01.2014 05:40 -0,1 C 89 % 1012,0 hPa 0,0 l/m 0,5 km/h (0 Bft) N-NO 22 -1,7 C -0,1 C 0,0 km/h (0 Bft)
24.01.2014 05:45 -0,1 C 89 % 1012,0 hPa 0,0 l/m 0,2 km/h (0 Bft) N-NO 22 -1,7 C -0,1 C 0,0 km/h (0 Bft)
24.01.2014 05:50 0,1 C 89 % 1012,0 hPa 0,0 l/m 1,1 km/h (1 Bft) N-NO 22 -1,5 C 0,0 C 7,6 km/h (2 Bft)
24.01.2014 05:55 0,2 C 90 % 1012,0 hPa 0,0 l/m 2,9 km/h (1 Bft) N-NO 22 -1,2 C -0,2 C 6,1 km/h (2 Bft)
24.01.2014 06:00 0,3 C 91 % 1012,0 hPa 0,0 l/m 6,0 km/h (2 Bft) S-SW 202 -1,0 C -1,7 C 10,9 km/h (2 Bft)
24.01.2014 06:05 0,4 C 91 % 1012,1 hPa 0,0 l/m 7,2 km/h (2 Bft) SO 135 -0,9 C -3,0 C 8,5 km/h (2 Bft)
24.01.2014 06:10 0,5 C 91 % 1012,1 hPa 0,0 l/m 8,4 km/h (2 Bft) S 180 -0,8 C -4,6 C 19,2 km/h (3 Bft)
24.01.2014 06:15 0,4 C 91 % 1012,1 hPa 0,0 l/m 7,9 km/h (2 Bft) S-SO 157 -0,9 C -4,0 C 6,8 km/h (2 Bft)
24.01.2014 06:20 0,3 C 92 % 1012,1 hPa 0,0 l/m 7,4 km/h (2 Bft) S 180 -0,8 C -3,2 C 10,0 km/h (2 Bft)
24.01.2014 06:25 0,3 C 92 % 1012,3 hPa 0,0 l/m 7,9 km/h (2 Bft) S-SO 157 -0,8 C -4,0 C 11,4 km/h (2 Bft)
24.01.2014 06:30 0,3 C 92 % 1012,3 hPa 0,0 l/m 9,0 km/h (2 Bft) S 180 -0,8 C -5,4 C 23,5 km/h (4 Bft)
24.01.2014 06:35 0,3 C 92 % 1012,3 hPa 0,0 l/m 9,7 km/h (2 Bft) S-SO 157 -0,8 C -6,2 C 9,3 km/h (2 Bft)
24.01.2014 06:40 0,2 C 92 % 1012,3 hPa 0,0 l/m 9,5 km/h (2 Bft) S 180 -0,9 C -6,0 C 15,1 km/h (3 Bft)
24.01.2014 06:45 0,2 C 92 % 1012,4 hPa 0,0 l/m 9,0 km/h (2 Bft) S 180 -0,9 C -5,5 C 8,9 km/h (2 Bft)
24.01.2014 06:50 0,1 C 92 % 1012,4 hPa 0,0 l/m 8,4 km/h (2 Bft) S 180 -1,0 C -4,7 C 7,7 km/h (2 Bft)
24.01.2014 06:55 0,1 C 92 % 1012,4 hPa 0,0 l/m 7,6 km/h (2 Bft) S-SW 202 -1,0 C -3,7 C 8,0 km/h (2 Bft)
24.01.2014 06:58 0,1 C 92 % 1012,4 hPa 0,0 l/m 7,9 km/h (2 Bft) S-SO 157 -1,0 C -4,2 C 9,2 km/h (2 Bft)
24.01.2014 07:00 0,1 C 92 % 1012,4 hPa 0,0 l/m 7,9 km/h (2 Bft) S-SO 157 -1,0 C -4,2 C 9,2 km/h (2 Bft)
24.01.2014 07:05 0,0 C 92 % 1012,8 hPa 0,0 l/m 9,7 km/h (2 Bft) S 180 -1,1 C -6,6 C 8,5 km/h (2 Bft)
24.01.2014 07:10 0,0 C 92 % 1012,8 hPa 0,0 l/m 8,9 km/h (2 Bft) SW 225 -1,1 C -5,7 C 10,5 km/h (2 Bft)
24.01.2014 07:15 -0,1 C 92 % 1012,8 hPa 0,0 l/m 7,7 km/h (2 Bft) S 180 -1,2 C -4,2 C 7,1 km/h (2 Bft)
24.01.2014 07:20 -0,1 C 92 % 1012,8 hPa 0,0 l/m 7,1 km/h (2 Bft) S-SW 202 -1,2 C -3,4 C 7,9 km/h (2 Bft)
24.01.2014 07:25 -0,1 C 92 % 1012,9 hPa 0,0 l/m 6,6 km/h (2 Bft) S 180 -1,2 C -2,6 C 6,3 km/h (2 Bft)
24.01.2014 07:30 -0,1 C 92 % 1012,9 hPa 0,0 l/m 6,4 km/h (2 Bft) S 180 -1,2 C -2,3 C 7,7 km/h (2 Bft)
24.01.2014 07:35 -0,1 C 92 % 1012,9 hPa 0,0 l/m 5,8 km/h (2 Bft) S-SO 157 -1,2 C -2,1 C 7,4 km/h (2 Bft)
24.01.2014 07:40 -0,2 C 92 % 1012,9 hPa 0,0 l/m 6,4 km/h (2 Bft) S-SO 157 -1,3 C -2,3 C 8,7 km/h (2 Bft)
24.01.2014 07:45 -0,2 C 92 % 1012,9 hPa 0,0 l/m 7,4 km/h (2 Bft) S 180 -1,3 C -3,9 C 7,1 km/h (2 Bft)
24.01.2014 07:50 -0,4 C 92 % 1012,9 hPa 0,0 l/m 8,0 km/h (2 Bft) SO 135 -1,5 C -4,9 C 7,4 km/h (2 Bft)
24.01.2014 07:55 -0,4 C 92 % 1012,9 hPa 0,0 l/m 8,4 km/h (2 Bft) O-SO 112 -1,5 C -5,5 C 11,6 km/h (2 Bft)
24.01.2014 08:00 -0,5 C 92 % 1012,9 hPa 0,0 l/m 9,0 km/h (2 Bft) S-SO 157 -1,6 C -6,5 C 13,0 km/h (3 Bft)
24.01.2014 08:05 -0,4 C 91 % 1013,3 hPa 0,0 l/m 8,7 km/h (2 Bft) S 180 -1,7 C -6,1 C 8,5 km/h (2 Bft)
24.01.2014 08:10 -0,5 C 91 % 1013,3 hPa 0,0 l/m 8,5 km/h (2 Bft) W-SW 247 -1,8 C -5,9 C 7,1 km/h (2 Bft)
24.01.2014 08:15 -0,5 C 91 % 1013,3 hPa 0,0 l/m 7,9 km/h (2 Bft) S 180 -1,8 C -5,0 C 14,0 km/h (3 Bft)
24.01.2014 08:20 -0,5 C 91 % 1013,3 hPa 0,0 l/m 7,4 km/h (2 Bft) S 180 -1,8 C -4,3 C 10,8 km/h (2 Bft)
24.01.2014 08:25 -0,4 C 91 % 1013,7 hPa 0,0 l/m 7,6 km/h (2 Bft) S-SO 157 -1,7 C -4,6 C 7,6 km/h (2 Bft)
24.01.2014 08:30 -0,4 C 90 % 1013,7 hPa 0,0 l/m 8,2 km/h (2 Bft) S 180 -1,8 C -5,4 C 9,5 km/h (2 Bft)
24.01.2014 08:35 -0,4 C 90 % 1013,7 hPa 0,0 l/m 8,5 km/h (2 Bft) S 180 -1,8 C -5,9 C 8,4 km/h (2 Bft)
24.01.2014 08:40 -0,4 C 89 % 1013,7 hPa 0,0 l/m 8,9 km/h (2 Bft) SO 135 -2,0 C -6,4 C 12,7 km/h (3 Bft)
24.01.2014 08:45 -0,5 C 89 % 1013,8 hPa 0,0 l/m 8,9 km/h (2 Bft) S-SO 157 -2,1 C -6,4 C 10,0 km/h (2 Bft)
24.01.2014 08:50 -0,5 C 89 % 1013,8 hPa 0,0 l/m 8,5 km/h (2 Bft) S 180 -2,1 C -6,0 C 12,9 km/h (3 Bft)
24.01.2014 08:55 -0,5 C 88 % 1013,8 hPa 0,0 l/m 8,9 km/h (2 Bft) S 180 -2,2 C -6,5 C 10,5 km/h (2 Bft)
24.01.2014 09:00 -0,4 C 87 % 1013,8 hPa 0,0 l/m 10,3 km/h (2 Bft) S-SO 157 -2,3 C -8,3 C 14,6 km/h (3 Bft)
24.01.2014 09:05 -0,4 C 86 % 1014,2 hPa 0,0 l/m 10,3 km/h (2 Bft) S-SO 157 -2,4 C -8,3 C 9,7 km/h (2 Bft)
24.01.2014 09:10 -0,4 C 86 % 1014,2 hPa 0,0 l/m 9,2 km/h (2 Bft) S-SO 157 -2,4 C -6,8 C 12,2 km/h (2 Bft)
24.01.2014 09:15 -0,3 C 85 % 1014,2 hPa 0,0 l/m 9,2 km/h (2 Bft) S 180 -2,5 C -6,8 C 8,4 km/h (2 Bft)
24.01.2014 09:20 -0,2 C 84 % 1014,2 hPa 0,0 l/m 9,5 km/h (2 Bft) S-SW 202 -2,6 C -7,0 C 12,9 km/h (3 Bft)
24.01.2014 09:25 -0,2 C 84 % 1014,2 hPa 0,0 l/m 9,0 km/h (2 Bft) S-SO 157 -2,6 C -6,4 C 8,9 km/h (2 Bft)
24.01.2014 09:30 -0,1 C 83 % 1014,2 hPa 0,0 l/m 8,7 km/h (2 Bft) S-SW 202 -2,6 C -5,8 C 8,9 km/h (2 Bft)
24.01.2014 09:35 0,0 C 83 % 1014,2 hPa 0,0 l/m 8,0 km/h (2 Bft) S-SO 157 -2,5 C -4,9 C 6,9 km/h (2 Bft)
24.01.2014 09:40 0,0 C 82 % 1014,2 hPa 0,0 l/m 8,2 km/h (2 Bft) S 180 -2,7 C -5,1 C 6,8 km/h (2 Bft)
24.01.2014 09:45 0,0 C 82 % 1014,4 hPa 0,0 l/m 8,0 km/h (2 Bft) SO 135 -2,7 C -4,8 C 9,8 km/h (2 Bft)
24.01.2014 09:50 0,0 C 81 % 1014,4 hPa 0,0 l/m 7,6 km/h (2 Bft) S-SO 157 -2,9 C -4,3 C 7,9 km/h (2 Bft)
24.01.2014 09:55 -0,1 C 81 % 1014,4 hPa 0,0 l/m 8,2 km/h (2 Bft) S 180 -3,0 C -5,1 C 12,1 km/h (2 Bft)
24.01.2014 10:00 0,0 C 80 % 1014,4 hPa 0,0 l/m 8,4 km/h (2 Bft) SO 135 -3,0 C -5,3 C 8,4 km/h (2 Bft)
24.01.2014 10:05 0,1 C 80 % 1014,9 hPa 0,0 l/m 8,5 km/h (2 Bft) S 180 -2,9 C -5,5 C 12,2 km/h (2 Bft)
24.01.2014 10:10 0,2 C 80 % 1014,9 hPa 0,0 l/m 7,9 km/h (2 Bft) S-SW 202 -2,8 C -4,4 C 8,5 km/h (2 Bft)
24.01.2014 10:15 0,2 C 79 % 1014,9 hPa 0,0 l/m 8,0 km/h (2 Bft) S 180 -3,0 C -4,6 C 12,1 km/h (2 Bft)
24.01.2014 10:20 0,3 C 79 % 1014,9 hPa 0,0 l/m 8,2 km/h (2 Bft) S 180 -2,9 C -4,7 C 10,6 km/h (2 Bft)
24.01.2014 10:25 0,3 C 79 % 1015,1 hPa 0,0 l/m 8,2 km/h (2 Bft) S-SO 157 -2,9 C -4,6 C 7,9 km/h (2 Bft)
24.01.2014 10:30 0,2 C 79 % 1015,1 hPa 0,0 l/m 7,7 km/h (2 Bft) S-SO 157 -3,0 C -4,1 C 13,8 km/h (3 Bft)
24.01.2014 10:35 0,2 C 79 % 1015,1 hPa 0,0 l/m 7,6 km/h (2 Bft) S 180 -3,0 C -3,8 C 7,2 km/h (2 Bft)
24.01.2014 10:40 0,2 C 79 % 1015,1 hPa 0,0 l/m 8,2 km/h (2 Bft) S-SO 157 -3,0 C -4,7 C 11,7 km/h (2 Bft)
24.01.2014 10:45 0,2 C 79 % 1015,2 hPa 0,0 l/m 8,2 km/h (2 Bft) S-SO 157 -3,0 C -4,7 C 10,6 km/h (2 Bft)
24.01.2014 10:50 0,2 C 79 % 1015,2 hPa 0,0 l/m 8,0 km/h (2 Bft) S 180 -3,0 C -4,4 C 7,6 km/h (2 Bft)
24.01.2014 10:55 0,3 C 79 % 1015,2 hPa 0,0 l/m 7,7 km/h (2 Bft) S-SO 157 -2,9 C -3,8 C 10,0 km/h (2 Bft)
24.01.2014 11:00 0,4 C 79 % 1015,2 hPa 0,0 l/m 8,4 km/h (2 Bft) S 180 -2,8 C -4,7 C 8,4 km/h (2 Bft)
24.01.2014 11:05 0,6 C 79 % 1015,3 hPa 0,0 l/m 9,0 km/h (2 Bft) S 180 -2,6 C -5,4 C 7,9 km/h (2 Bft)
24.01.2014 11:10 0,7 C 78 % 1015,3 hPa 0,0 l/m 8,5 km/h (2 Bft) S 180 -2,7 C -4,5 C 9,5 km/h (2 Bft)
24.01.2014 11:15 0,7 C 78 % 1015,3 hPa 0,0 l/m 8,4 km/h (2 Bft) S-SO 157 -2,7 C -4,3 C 5,6 km/h (1 Bft)
24.01.2014 11:20 0,8 C 78 % 1015,3 hPa 0,0 l/m 8,5 km/h (2 Bft) S-SO 157 -2,6 C -4,4 C 10,8 km/h (2 Bft)
24.01.2014 11:25 0,9 C 77 % 1015,2 hPa 0,0 l/m 8,2 km/h (2 Bft) S 180 -2,7 C -3,8 C 10,0 km/h (2 Bft)
24.01.2014 11:30 1,1 C 76 % 1015,2 hPa 0,0 l/m 9,2 km/h (2 Bft) S-SO 157 -2,6 C -5,1 C 10,0 km/h (2 Bft)
24.01.2014 11:35 1,0 C 76 % 1015,2 hPa 0,0 l/m 9,3 km/h (2 Bft) S 180 -2,7 C -5,1 C 7,4 km/h (2 Bft)
24.01.2014 11:40 1,1 C 76 % 1015,2 hPa 0,0 l/m 8,4 km/h (2 Bft) S 180 -2,6 C -3,8 C 12,4 km/h (3 Bft)
24.01.2014 11:45 1,1 C 75 % 1015,2 hPa 0,0 l/m 8,5 km/h (2 Bft) S 180 -2,8 C -3,9 C 8,0 km/h (2 Bft)
24.01.2014 11:50 1,0 C 75 % 1015,2 hPa 0,0 l/m 9,0 km/h (2 Bft) S-SO 157 -2,9 C -4,5 C 8,0 km/h (2 Bft)
24.01.2014 11:55 1,2 C 75 % 1015,2 hPa 0,0 l/m 8,9 km/h (2 Bft) S-SO 157 -2,7 C -4,3 C 12,2 km/h (2 Bft)
24.01.2014 12:00 1,3 C 75 % 1015,2 hPa 0,0 l/m 8,0 km/h (2 Bft) S 180 -2,6 C -3,0 C 3,5 km/h (1 Bft)
24.01.2014 12:05 1,4 C 74 % 1015,1 hPa 0,0 l/m 7,7 km/h (2 Bft) S 180 -2,7 C -2,6 C 9,7 km/h (2 Bft)
24.01.2014 12:10 1,4 C 73 % 1015,1 hPa 0,0 l/m 7,4 km/h (2 Bft) SO 135 -2,9 C -2,2 C 10,5 km/h (2 Bft)
24.01.2014 12:15 1,4 C 72 % 1015,1 hPa 0,0 l/m 8,2 km/h (2 Bft) S 180 -3,1 C -3,1 C 11,4 km/h (2 Bft)
24.01.2014 12:20 1,5 C 73 % 1015,1 hPa 0,0 l/m 8,2 km/h (2 Bft) SO 135 -2,8 C -3,1 C 10,6 km/h (2 Bft)
24.01.2014 12:25 1,5 C 71 % 1014,4 hPa 0,0 l/m 8,4 km/h (2 Bft) S-SO 157 -3,2 C -3,3 C 8,5 km/h (2 Bft)
24.01.2014 12:30 1,6 C 71 % 1014,4 hPa 0,0 l/m 7,4 km/h (2 Bft) S 180 -3,1 C -1,8 C 10,3 km/h (2 Bft)
24.01.2014 12:35 1,8 C 71 % 1014,4 hPa 0,0 l/m 6,9 km/h (2 Bft) W-NW 292 -2,9 C -0,8 C 6,8 km/h (2 Bft)
24.01.2014 12:40 1,9 C 71 % 1014,4 hPa 0,0 l/m 6,8 km/h (2 Bft) S 180 -2,8 C -0,4 C 6,4 km/h (2 Bft)
24.01.2014 12:45 1,7 C 72 % 1013,8 hPa 0,0 l/m 7,1 km/h (2 Bft) S 180 -2,8 C -0,8 C 6,1 km/h (2 Bft)
24.01.2014 12:50 1,6 C 72 % 1013,8 hPa 0,0 l/m 7,9 km/h (2 Bft) S 180 -2,9 C -1,9 C 12,9 km/h (3 Bft)
24.01.2014 12:55 1,7 C 73 % 1013,8 hPa 0,0 l/m 7,6 km/h (2 Bft) S 180 -2,6 C -1,5 C 7,4 km/h (2 Bft)
24.01.2014 12:58 2,0 C 74 % 1013,8 hPa 0,0 l/m 6,8 km/h (2 Bft) S 180 -2,1 C 0,2 C 6,4 km/h (2 Bft)
24.01.2014 13:00 2,0 C 74 % 1013,8 hPa 0,0 l/m 6,8 km/h (2 Bft) S 180 -2,1 C 0,2 C 6,4 km/h (2 Bft)
24.01.2014 13:05 2,1 C 74 % 1013,7 hPa 0,0 l/m 6,1 km/h (2 Bft) S 180 -2,0 C 0,9 C 9,3 km/h (2 Bft)
24.01.2014 13:10 2,2 C 75 % 1013,7 hPa 0,0 l/m 6,3 km/h (2 Bft) S 180 -1,8 C 0,7 C 8,2 km/h (2 Bft)
24.01.2014 13:15 2,2 C 74 % 1013,7 hPa 0,0 l/m 6,1 km/h (2 Bft) S-SW 202 -1,9 C 0,9 C 6,3 km/h (2 Bft)
24.01.2014 13:20 1,9 C 74 % 1013,7 hPa 0,0 l/m 6,4 km/h (2 Bft) S-SO 157 -2,2 C 0,6 C 8,0 km/h (2 Bft)
24.01.2014 13:25 1,5 C 73 % 1013,6 hPa 0,0 l/m 6,9 km/h (2 Bft) S 180 -2,8 C -0,4 C 10,9 km/h (2 Bft)
24.01.2014 13:30 1,5 C 74 % 1013,6 hPa 0,0 l/m 6,9 km/h (2 Bft) S 180 -2,6 C -0,8 C 6,3 km/h (2 Bft)
24.01.2014 13:35 1,4 C 75 % 1013,6 hPa 0,0 l/m 6,9 km/h (2 Bft) S 180 -2,5 C -0,9 C 7,4 km/h (2 Bft)
24.01.2014 13:40 1,3 C 75 % 1013,6 hPa 0,0 l/m 6,9 km/h (2 Bft) S-SO 157 -2,6 C -1,2 C 4,2 km/h (1 Bft)
24.01.2014 13:45 1,1 C 76 % 1013,6 hPa 0,0 l/m 6,9 km/h (2 Bft) S-SW 202 -2,6 C -1,4 C 6,3 km/h (2 Bft)
24.01.2014 13:50 0,9 C 77 % 1013,6 hPa 0,0 l/m 7,1 km/h (2 Bft) S-SO 157 -2,7 C -2,0 C 9,2 km/h (2 Bft)
24.01.2014 13:55 0,8 C 77 % 1013,6 hPa 0,0 l/m 7,2 km/h (2 Bft) S-SO 157 -2,8 C -2,2 C 4,8 km/h (1 Bft)
24.01.2014 14:00 0,8 C 78 % 1013,6 hPa 0,0 l/m 6,4 km/h (2 Bft) S 180 -2,6 C -1,2 C 6,6 km/h (2 Bft)
24.01.2014 14:05 0,9 C 78 % 1013,2 hPa 0,0 l/m 6,0 km/h (2 Bft) SO 135 -2,5 C -1,0 C 5,1 km/h (1 Bft)
24.01.2014 14:10 0,9 C 77 % 1013,2 hPa 0,0 l/m 7,2 km/h (2 Bft) S-SO 157 -2,7 C -2,4 C 9,0 km/h (2 Bft)
24.01.2014 14:15 1,0 C 78 % 1013,2 hPa 0,0 l/m 7,7 km/h (2 Bft) S 180 -2,4 C -3,0 C 8,9 km/h (2 Bft)
24.01.2014 14:20 1,0 C 78 % 1013,2 hPa 0,0 l/m 7,1 km/h (2 Bft) S 180 -2,4 C -2,2 C 6,0 km/h (2 Bft)
24.01.2014 14:25 1,2 C 78 % 1013,2 hPa 0,0 l/m 6,8 km/h (2 Bft) S 180 -2,2 C -1,5 C 9,5 km/h (2 Bft)
24.01.2014 14:30 1,1 C 77 % 1013,2 hPa 0,0 l/m 6,8 km/h (2 Bft) S 180 -2,5 C -1,5 C 8,9 km/h (2 Bft)
24.01.2014 14:35 1,0 C 77 % 1013,2 hPa 0,0 l/m 7,1 km/h (2 Bft) S 180 -2,6 C -1,9 C 9,0 km/h (2 Bft)
24.01.2014 14:40 1,1 C 77 % 1013,2 hPa 0,0 l/m 6,6 km/h (2 Bft) S 180 -2,5 C -1,1 C 6,3 km/h (2 Bft)
24.01.2014 14:45 1,1 C 77 % 1013,7 hPa 0,0 l/m 6,3 km/h (2 Bft) S-SW 202 -2,5 C -0,7 C 8,2 km/h (2 Bft)
24.01.2014 14:50 0,9 C 77 % 1013,7 hPa 0,0 l/m 6,4 km/h (2 Bft) O-SO 112 -2,7 C -0,9 C 6,3 km/h (2 Bft)
24.01.2014 14:55 0,9 C 77 % 1013,7 hPa 0,0 l/m 6,8 km/h (2 Bft) O 90 -2,7 C -1,5 C 5,8 km/h (2 Bft)
24.01.2014 15:00 0,8 C 77 % 1013,7 hPa 0,0 l/m 6,4 km/h (2 Bft) S-SW 202 -2,8 C -1,1 C 8,9 km/h (2 Bft)
24.01.2014 15:05 0,9 C 77 % 1014,6 hPa 0,0 l/m 7,2 km/h (2 Bft) S 180 -2,7 C -2,2 C 9,7 km/h (2 Bft)
24.01.2014 15:10 1,1 C 77 % 1014,6 hPa 0,0 l/m 6,9 km/h (2 Bft) SO 135 -2,5 C -1,7 C 6,4 km/h (2 Bft)
24.01.2014 15:15 0,9 C 77 % 1014,6 hPa 0,0 l/m 6,3 km/h (2 Bft) S 180 -2,7 C -1,0 C 5,8 km/h (2 Bft)
24.01.2014 15:20 0,9 C 77 % 1014,6 hPa 0,0 l/m 5,8 km/h (2 Bft) S-SW 202 -2,7 C -0,8 C 3,5 km/h (1 Bft)
24.01.2014 15:25 0,8 C 76 % 1014,9 hPa 0,0 l/m 5,5 km/h (1 Bft) S 180 -2,9 C -0,8 C 7,4 km/h (2 Bft)
24.01.2014 15:30 0,8 C 77 % 1014,9 hPa 0,0 l/m 4,8 km/h (1 Bft) S 180 -2,8 C -0,5 C 4,7 km/h (1 Bft)
24.01.2014 15:35 0,7 C 77 % 1014,9 hPa 0,0 l/m 4,7 km/h (1 Bft) S-SW 202 -2,9 C -0,6 C 6,4 km/h (2 Bft)
24.01.2014 15:40 0,4 C 77 % 1014,9 hPa 0,0 l/m 5,5 km/h (1 Bft) S 180 -3,1 C -1,1 C 7,9 km/h (2 Bft)
24.01.2014 15:45 0,3 C 77 % 1015,1 hPa 0,0 l/m 6,3 km/h (2 Bft) S 180 -3,2 C -1,7 C 7,6 km/h (2 Bft)
24.01.2014 15:50 0,3 C 78 % 1015,1 hPa 0,0 l/m 6,4 km/h (2 Bft) S-SO 157 -3,1 C -1,9 C 6,0 km/h (2 Bft)
24.01.2014 15:55 0,2 C 78 % 1015,1 hPa 0,0 l/m 6,9 km/h (2 Bft) S 180 -3,2 C -2,6 C 10,0 km/h (2 Bft)
24.01.2014 16:00 0,0 C 78 % 1015,1 hPa 0,0 l/m 6,9 km/h (2 Bft) S-SW 202 -3,4 C -2,9 C 7,6 km/h (2 Bft)
24.01.2014 16:05 -0,1 C 79 % 1015,3 hPa 0,0 l/m 6,8 km/h (2 Bft) SW 225 -3,3 C -2,7 C 11,9 km/h (2 Bft)
24.01.2014 16:10 -0,1 C 79 % 1015,3 hPa 0,0 l/m 6,6 km/h (2 Bft) S-SO 157 -3,3 C -2,8 C 3,9 km/h (1 Bft)
24.01.2014 16:15 -0,2 C 79 % 1015,3 hPa 0,0 l/m 6,1 km/h (2 Bft) S-SO 157 -3,4 C -2,3 C 7,6 km/h (2 Bft)
24.01.2014 16:20 -0,4 C 79 % 1015,3 hPa 0,0 l/m 5,1 km/h (1 Bft) O-SO 112 -3,6 C -2,1 C 3,4 km/h (1 Bft)
24.01.2014 16:25 -0,4 C 80 % 1015,4 hPa 0,0 l/m 5,5 km/h (1 Bft) S 180 -3,4 C -2,3 C 8,7 km/h (2 Bft)
24.01.2014 16:30 -0,5 C 80 % 1015,4 hPa 0,0 l/m 6,1 km/h (2 Bft) S 180 -3,5 C -2,7 C 7,1 km/h (2 Bft)
24.01.2014 16:35 -0,6 C 81 % 1015,4 hPa 0,0 l/m 6,6 km/h (2 Bft) S-SW 202 -3,4 C -3,2 C 6,4 km/h (2 Bft)
24.01.2014 16:40 -0,6 C 81 % 1015,4 hPa 0,0 l/m 5,6 km/h (1 Bft) S 180 -3,4 C -2,6 C 5,0 km/h (1 Bft)
24.01.2014 16:45 -0,7 C 81 % 1015,2 hPa 0,0 l/m 5,5 km/h (1 Bft) S 180 -3,5 C -2,6 C 5,5 km/h (1 Bft)
24.01.2014 16:50 -0,8 C 81 % 1015,2 hPa 0,0 l/m 5,1 km/h (1 Bft) SO 135 -3,6 C -2,6 C 3,4 km/h (1 Bft)
24.01.2014 16:55 -0,8 C 81 % 1015,2 hPa 0,0 l/m 5,1 km/h (1 Bft) S-SO 157 -3,6 C -2,6 C 4,8 km/h (1 Bft)
24.01.2014 17:00 -0,8 C 81 % 1015,2 hPa 0,0 l/m 5,1 km/h (1 Bft) S 180 -3,6 C -2,7 C 3,4 km/h (1 Bft)
24.01.2014 17:05 -0,9 C 82 % 1015,6 hPa 0,0 l/m 5,1 km/h (1 Bft) SO 135 -3,6 C -2,7 C 7,4 km/h (2 Bft)
24.01.2014 17:10 -1,0 C 82 % 1015,6 hPa 0,0 l/m 5,1 km/h (1 Bft) S 180 -3,7 C -2,7 C 5,0 km/h (1 Bft)
24.01.2014 17:15 -1,0 C 82 % 1015,6 hPa 0,0 l/m 5,5 km/h (1 Bft) S 180 -3,7 C -2,8 C 6,3 km/h (2 Bft)
24.01.2014 17:20 -1,0 C 82 % 1015,6 hPa 0,0 l/m 5,0 km/h (1 Bft) O 90 -3,7 C -2,7 C 4,2 km/h (1 Bft)
24.01.2014 17:25 -1,0 C 82 % 1015,6 hPa 0,0 l/m 4,7 km/h (1 Bft) O-SO 112 -3,7 C -2,6 C 4,8 km/h (1 Bft)
24.01.2014 17:30 -1,0 C 82 % 1015,6 hPa 0,0 l/m 4,3 km/h (1 Bft) S 180 -3,7 C -2,4 C 7,1 km/h (2 Bft)
24.01.2014 17:35 -1,0 C 82 % 1015,6 hPa 0,0 l/m 4,0 km/h (1 Bft) O-SO 112 -3,7 C -2,2 C 6,3 km/h (2 Bft)
24.01.2014 17:40 -1,0 C 82 % 1015,6 hPa 0,0 l/m 4,7 km/h (1 Bft) S 180 -3,7 C -2,6 C 8,9 km/h (2 Bft)
24.01.2014 17:45 -1,0 C 82 % 1015,8 hPa 0,0 l/m 5,1 km/h (1 Bft) S-SO 157 -3,7 C -2,8 C 7,4 km/h (2 Bft)
24.01.2014 17:50 -1,0 C 82 % 1015,8 hPa 0,0 l/m 5,8 km/h (2 Bft) S 180 -3,7 C -3,1 C 6,6 km/h (2 Bft)
24.01.2014 17:55 -1,1 C 82 % 1015,8 hPa 0,0 l/m 6,0 km/h (2 Bft) S-SO 157 -3,8 C -3,2 C 7,4 km/h (2 Bft)
24.01.2014 18:00 -1,1 C 83 % 1015,8 hPa 0,0 l/m 5,0 km/h (1 Bft) S 180 -3,6 C -2,8 C 9,0 km/h (2 Bft)
24.01.2014 18:05 -1,1 C 83 % 1015,9 hPa 0,0 l/m 5,0 km/h (1 Bft) S-SO 157 -3,6 C -2,8 C 5,0 km/h (1 Bft)
24.01.2014 18:10 -1,1 C 83 % 1015,9 hPa 0,0 l/m 4,7 km/h (1 Bft) S-SO 157 -3,6 C -2,8 C 5,6 km/h (1 Bft)
24.01.2014 18:15 -1,1 C 83 % 1015,9 hPa 0,0 l/m 4,2 km/h (1 Bft) S 180 -3,6 C -2,6 C 3,9 km/h (1 Bft)
24.01.2014 18:20 -1,2 C 84 % 1015,9 hPa 0,0 l/m 4,7 km/h (1 Bft) SO 135 -3,5 C -2,8 C 7,6 km/h (2 Bft)
24.01.2014 18:25 -1,2 C 84 % 1016,1 hPa 0,0 l/m 4,8 km/h (1 Bft) S-SW 202 -3,5 C -2,9 C 7,6 km/h (2 Bft)
24.01.2014 18:30 -1,2 C 84 % 1016,1 hPa 0,0 l/m 6,0 km/h (2 Bft) S 180 -3,5 C -3,5 C 6,9 km/h (2 Bft)
24.01.2014 18:35 -1,2 C 84 % 1016,1 hPa 0,0 l/m 6,1 km/h (2 Bft) S-SO 157 -3,5 C -3,6 C 6,9 km/h (2 Bft)
24.01.2014 18:40 -1,2 C 85 % 1016,1 hPa 0,0 l/m 5,8 km/h (2 Bft) S 180 -3,4 C -3,4 C 6,9 km/h (2 Bft)
24.01.2014 18:45 -1,2 C 85 % 1016,2 hPa 0,0 l/m 6,1 km/h (2 Bft) O-SO 112 -3,4 C -3,6 C 9,7 km/h (2 Bft)
24.01.2014 18:50 -1,3 C 85 % 1016,2 hPa 0,0 l/m 6,4 km/h (2 Bft) O-SO 112 -3,5 C -3,6 C 11,9 km/h (2 Bft)
24.01.2014 18:53 -1,3 C 85 % 1016,2 hPa 0,0 l/m 6,0 km/h (2 Bft) S 180 -3,5 C -3,5 C 7,1 km/h (2 Bft)
24.01.2014 18:55 -1,3 C 85 % 1016,2 hPa 0,0 l/m 6,0 km/h (2 Bft) S 180 -3,5 C -3,5 C 7,1 km/h (2 Bft)
24.01.2014 19:00 -1,3 C 85 % 1016,2 hPa 0,0 l/m 5,3 km/h (1 Bft) S-SO 157 -3,5 C -3,2 C 6,3 km/h (2 Bft)
24.01.2014 19:05 -1,3 C 85 % 1016,2 hPa 0,0 l/m 5,1 km/h (1 Bft) SO 135 -3,5 C -3,1 C 5,5 km/h (1 Bft)
24.01.2014 19:10 -1,3 C 84 % 1016,2 hPa 0,0 l/m 5,0 km/h (1 Bft) S-SO 157 -3,6 C -3,0 C 6,6 km/h (2 Bft)
24.01.2014 19:15 -1,2 C 84 % 1016,2 hPa 0,0 l/m 5,1 km/h (1 Bft) S 180 -3,5 C -3,1 C 6,4 km/h (2 Bft)
24.01.2014 19:20 -1,2 C 84 % 1016,2 hPa 0,0 l/m 5,1 km/h (1 Bft) S-SO 157 -3,5 C -3,1 C 7,2 km/h (2 Bft)
24.01.2014 19:25 -1,2 C 84 % 1016,4 hPa 0,0 l/m 5,0 km/h (1 Bft) S-SO 157 -3,5 C -3,0 C 4,3 km/h (1 Bft)
24.01.2014 19:30 -1,2 C 84 % 1016,4 hPa 0,0 l/m 5,1 km/h (1 Bft) S 180 -3,5 C -3,1 C 7,4 km/h (2 Bft)
24.01.2014 19:35 -1,2 C 84 % 1016,4 hPa 0,0 l/m 5,1 km/h (1 Bft) S 180 -3,5 C -2,9 C 6,1 km/h (2 Bft)
24.01.2014 19:40 -1,2 C 84 % 1016,4 hPa 0,0 l/m 5,5 km/h (1 Bft) S-SO 157 -3,5 C -3,2 C 8,4 km/h (2 Bft)
24.01.2014 19:45 -1,3 C 84 % 1016,5 hPa 0,0 l/m 5,6 km/h (1 Bft) S 180 -3,6 C -3,3 C 4,7 km/h (1 Bft)
24.01.2014 19:50 -1,3 C 84 % 1016,5 hPa 0,0 l/m 5,3 km/h (1 Bft) SO 135 -3,6 C -3,1 C 7,4 km/h (2 Bft)
24.01.2014 19:55 -1,3 C 84 % 1016,5 hPa 0,0 l/m 5,3 km/h (1 Bft) SO 135 -3,6 C -3,1 C 7,2 km/h (2 Bft)
24.01.2014 20:00 -1,3 C 85 % 1016,5 hPa 0,0 l/m 5,1 km/h (1 Bft) S 180 -3,5 C -3,1 C 5,8 km/h (2 Bft)
24.01.2014 20:05 -1,3 C 85 % 1016,7 hPa 0,0 l/m 4,2 km/h (1 Bft) S 180 -3,5 C -2,6 C 6,4 km/h (2 Bft)
24.01.2014 20:10 -1,4 C 85 % 1016,7 hPa 0,0 l/m 4,2 km/h (1 Bft) S 180 -3,6 C -2,6 C 5,5 km/h (1 Bft)
24.01.2014 20:15 -1,4 C 85 % 1016,7 hPa 0,0 l/m 4,0 km/h (1 Bft) S 180 -3,6 C -2,5 C 3,7 km/h (1 Bft)
24.01.2014 20:20 -1,4 C 85 % 1016,7 hPa 0,0 l/m 3,2 km/h (1 Bft) S 180 -3,6 C -2,0 C 4,5 km/h (1 Bft)
24.01.2014 20:25 -1,4 C 86 % 1016,8 hPa 0,0 l/m 3,5 km/h (1 Bft) S-SO 157 -3,4 C -2,3 C 7,2 km/h (2 Bft)
24.01.2014 20:30 -1,4 C 86 % 1016,8 hPa 0,0 l/m 3,9 km/h (1 Bft) S 180 -3,4 C -2,6 C 3,4 km/h (1 Bft)
24.01.2014 20:35 -1,5 C 86 % 1016,8 hPa 0,0 l/m 3,7 km/h (1 Bft) S 180 -3,5 C -2,4 C 2,7 km/h (1 Bft)
24.01.2014 20:40 -1,5 C 86 % 1016,8 hPa 0,0 l/m 3,2 km/h (1 Bft) S 180 -3,5 C -2,1 C 6,1 km/h (2 Bft)
24.01.2014 20:45 -1,5 C 87 % 1016,8 hPa 0,0 l/m 4,2 km/h (1 Bft) S-SO 157 -3,4 C -2,9 C 5,6 km/h (1 Bft)
24.01.2014 20:50 -1,5 C 87 % 1016,8 hPa 0,0 l/m 4,3 km/h (1 Bft) S 180 -3,4 C -2,9 C 2,3 km/h (1 Bft)
24.01.2014 20:55 -1,5 C 87 % 1016,8 hPa 0,0 l/m 3,5 km/h (1 Bft) SO 135 -3,4 C -2,4 C 3,9 km/h (1 Bft)
24.01.2014 21:00 -1,5 C 87 % 1016,8 hPa 0,0 l/m 3,9 km/h (1 Bft) S 180 -3,4 C -2,6 C 2,7 km/h (1 Bft)
24.01.2014 21:05 -1,4 C 88 % 1016,8 hPa 0,0 l/m 4,7 km/h (1 Bft) O-SO 112 -3,1 C -3,0 C 8,0 km/h (2 Bft)
24.01.2014 21:10 -1,4 C 88 % 1016,8 hPa 0,0 l/m 4,5 km/h (1 Bft) S-SW 202 -3,1 C -2,9 C 5,1 km/h (1 Bft)
24.01.2014 21:15 -1,4 C 88 % 1016,8 hPa 0,0 l/m 4,5 km/h (1 Bft) W-SW 247 -3,1 C -2,9 C 6,1 km/h (2 Bft)
24.01.2014 21:20 -1,4 C 88 % 1016,8 hPa 0,0 l/m 3,4 km/h (1 Bft) O-SO 112 -3,1 C -2,2 C 2,3 km/h (1 Bft)
24.01.2014 21:25 -1,4 C 88 % 1017,0 hPa 0,0 l/m 3,1 km/h (1 Bft) O-SO 112 -3,1 C -2,1 C 2,1 km/h (1 Bft)
24.01.2014 21:30 -1,4 C 88 % 1017,0 hPa 0,0 l/m 3,1 km/h (1 Bft) O-SO 112 -3,1 C -2,1 C 4,8 km/h (1 Bft)
24.01.2014 21:35 -1,4 C 88 % 1017,0 hPa 0,0 l/m 3,1 km/h (1 Bft) S-SO 157 -3,1 C -1,9 C 2,9 km/h (1 Bft)
24.01.2014 21:40 -1,4 C 88 % 1017,0 hPa 0,0 l/m 3,9 km/h (1 Bft) O 90 -3,1 C -2,4 C 6,4 km/h (2 Bft)
24.01.2014 21:45 -1,3 C 88 % 1017,0 hPa 0,0 l/m 4,0 km/h (1 Bft) O-SO 112 -3,0 C -2,5 C 6,1 km/h (2 Bft)
24.01.2014 21:50 -1,3 C 88 % 1017,0 hPa 0,0 l/m 4,2 km/h (1 Bft) O-SO 112 -3,0 C -2,6 C 4,5 km/h (1 Bft)
24.01.2014 21:55 -1,3 C 88 % 1017,0 hPa 0,0 l/m 3,9 km/h (1 Bft) O-SO 112 -3,0 C -2,4 C 2,4 km/h (1 Bft)
24.01.2014 22:00 -1,3 C 88 % 1017,0 hPa 0,0 l/m 3,2 km/h (1 Bft) S 180 -3,0 C -2,0 C 4,3 km/h (1 Bft)
24.01.2014 22:05 -1,4 C 88 % 1016,9 hPa 0,0 l/m 2,9 km/h (1 Bft) O-SO 112 -3,1 C -1,8 C 3,1 km/h (1 Bft)
24.01.2014 22:10 -1,3 C 88 % 1016,9 hPa 0,0 l/m 3,1 km/h (1 Bft) O 90 -3,0 C -1,9 C 3,9 km/h (1 Bft)
24.01.2014 22:15 -1,3 C 88 % 1016,9 hPa 0,0 l/m 3,1 km/h (1 Bft) O-SO 112 -3,0 C -1,9 C 3,5 km/h (1 Bft)
24.01.2014 22:20 -1,3 C 88 % 1016,9 hPa 0,0 l/m 3,4 km/h (1 Bft) S-SO 157 -3,0 C -2,1 C 2,4 km/h (1 Bft)
24.01.2014 22:25 -1,3 C 88 % 1017,0 hPa 0,0 l/m 2,7 km/h (1 Bft) O 90 -3,0 C -1,6 C 2,6 km/h (1 Bft)
24.01.2014 22:30 -1,3 C 88 % 1017,0 hPa 0,0 l/m 1,4 km/h (1 Bft) O 90 -3,0 C -1,2 C 2,6 km/h (1 Bft)
24.01.2014 22:35 -1,3 C 88 % 1017,0 hPa 0,0 l/m 1,8 km/h (1 Bft) S-SO 157 -3,0 C -1,2 C 0,0 km/h (0 Bft)
24.01.2014 22:40 -1,3 C 88 % 1017,0 hPa 0,0 l/m 1,8 km/h (1 Bft) S-SO 157 -3,0 C -1,2 C 2,7 km/h (1 Bft)
24.01.2014 22:45 -1,3 C 88 % 1016,8 hPa 0,0 l/m 1,1 km/h (1 Bft) O-SO 112 -3,0 C -1,2 C 2,1 km/h (1 Bft)
24.01.2014 22:50 -1,3 C 88 % 1016,8 hPa 0,0 l/m 1,9 km/h (1 Bft) O 90 -3,0 C -1,2 C 3,7 km/h (1 Bft)
24.01.2014 22:55 -1,3 C 88 % 1016,8 hPa 0,0 l/m 2,4 km/h (1 Bft) SO 135 -3,0 C -1,3 C 4,0 km/h (1 Bft)
24.01.2014 23:00 -1,3 C 88 % 1016,8 hPa 0,0 l/m 2,4 km/h (1 Bft) S-SO 157 -3,0 C -1,3 C 0,0 km/h (0 Bft)
24.01.2014 23:05 -1,3 C 88 % 1016,8 hPa 0,0 l/m 2,1 km/h (1 Bft) SO 135 -3,0 C -1,2 C 1,6 km/h (1 Bft)
24.01.2014 23:10 -1,3 C 88 % 1016,8 hPa 0,0 l/m 1,4 km/h (1 Bft) S-SO 157 -3,0 C -1,2 C 0,0 km/h (0 Bft)
24.01.2014 23:15 -1,3 C 88 % 1016,8 hPa 0,0 l/m 0,8 km/h (0 Bft) S 180 -3,0 C -1,2 C 4,3 km/h (1 Bft)
24.01.2014 23:20 -1,3 C 88 % 1016,8 hPa 0,0 l/m 1,4 km/h (1 Bft) S 180 -3,0 C -1,2 C 3,2 km/h (1 Bft)
24.01.2014 23:25 -1,3 C 88 % 1016,9 hPa 0,0 l/m 2,4 km/h (1 Bft) S 180 -3,0 C -1,3 C 2,3 km/h (1 Bft)
24.01.2014 23:30 -1,4 C 88 % 1016,9 hPa 0,0 l/m 1,6 km/h (1 Bft) SO 135 -3,1 C -1,3 C 0,0 km/h (0 Bft)
24.01.2014 23:35 -1,4 C 88 % 1016,9 hPa 0,0 l/m 1,0 km/h (0 Bft) O 90 -3,1 C -1,3 C 4,3 km/h (1 Bft)
24.01.2014 23:40 -1,4 C 88 % 1016,9 hPa 0,0 l/m 0,3 km/h (0 Bft) S 180 -3,1 C -1,3 C 0,0 km/h (0 Bft)
24.01.2014 23:45 -1,4 C 88 % 1017,0 hPa 0,0 l/m 0,3 km/h (0 Bft) SO 135 -3,1 C -1,3 C 0,0 km/h (0 Bft)
24.01.2014 23:50 -1,4 C 88 % 1017,0 hPa 0,0 l/m 0,5 km/h (0 Bft) S 180 -3,1 C -1,3 C 0,0 km/h (0 Bft)
24.01.2014 23:55 -1,4 C 88 % 1017,0 hPa 0,0 l/m 0,6 km/h (0 Bft) S 180 -3,1 C -1,3 C 0,0 km/h (0 Bft)
_ Min-Zeit 21:00 12:40 05:20 - 04:45 - - 00:40 09:05 23:55
Minimum _ -1,5 C 71 % 1011,8 hPa - 0,0 km/h (0 Bft) - - -4,0 C -8,3 C 0,0 km/h (0 Bft)
_ Max-Zeit 13:15 08:00 23:55 23:55 09:05 - - 06:10 13:15 06:30
Maximum _ 2,2 C 92 % 1017,0 hPa 0,0 l/m 10,3 km/h
S-SO (2 Bft)
- - -0,8 C 0,9 C 23,5 km/h
S (4 Bft)
Durchschnitt _ -0,1 C 83 % 1014,4 hPa #0,0 l/m 5,2 km/h (1 Bft) S - -2,6 C -2,4 C 6,2 km/h (2 Bft)